GW5233 Weather Reports


time (UTC)temp
F
wind
direction
speed
knots
gust
knots
rain 1hr
in
rain 24hr
in
rain mn
in
humidity
%
barometer
mb
20260503004612 75 0 0.0 0.0 0.00 0.00 0.00 21 920.3
20260503003113 75 24 2.6 5.2 0.00 0.00 0.00 21 920.4
20260503001609 75 349 0.9 1.7 0.00 0.00 0.00 21 920.4
20260503000109 75 133 0.0 1.7 0.00 0.00 0.00 22 920.4
20260502234609 76 162 1.7 1.7 0.00 0.00 0.00 22 920.5
20260502233108 76 39 4.3 6.1 0.00 0.00 0.00 22 920.5
20260502231611 76 7 2.6 3.5 0.00 0.00 0.00 22 920.5
20260502230115 76 202 0.0 1.7 0.00 0.00 0.00 22 920.5
20260502224609 75 62 0.9 2.6 0.00 0.00 0.00 22 920.5
20260502223110 74 57 3.5 4.3 0.00 0.00 0.00 22 920.4
20260502220115 76 109 2.6 3.5 0.00 0.00 0.00 22 920.4
20260502214612 76 20 3.5 5.2 0.00 0.00 0.00 22 920.5
20260502213108 75 31 4.3 5.2 0.00 0.00 0.00 22 920.4
20260502211616 75 42 3.5 6.1 0.00 0.00 0.00 22 920.4
20260502210114 75 144 2.6 3.5 0.00 0.00 0.00 22 920.4
20260502204612 75 223 1.7 3.5 0.00 0.00 0.00 22 920.5
20260502203108 74 102 0.9 2.6 0.00 0.00 0.00 22 920.3
20260502201618 74 45 3.5 4.3 0.00 0.00 0.00 22 920.4
20260502194612 74 121 0.0 0.9 0.00 0.00 0.00 22 920.4
20260502193108 71 193 4.3 5.2 0.00 0.00 0.00 22 920.1
20260502191613 68 198 5.2 5.2 0.00 0.00 0.00 22 919.9
20260502190113 67 163 3.5 3.5 0.00 0.00 0.00 22 919.8
20260502184608 65 169 1.7 1.7 0.00 0.00 0.00 22 919.7
20260502183108 63 125 2.6 4.3 0.00 0.00 0.00 22 919.5
20260502181616 63 74 5.2 6.1 0.00 0.00 0.00 22 919.5
20260502180108 63 170 1.7 2.6 0.00 0.00 0.00 22 919.5
20260502170109 59 281 0.9 1.7 0.00 0.00 0.00 22 919.2
20260502161609 54 178 2.6 3.5 0.00 0.00 0.00 22 918.8
20260502160115 53 216 2.6 3.5 0.00 0.00 0.00 21 918.7
20260502151614 51 314 2.6 5.2 0.00 0.00 0.00 21 918.5
20260502150111 50 329 0.9 1.7 0.00 0.00 0.00 21 918.5
20260502140109 46 305 3.5 6.1 0.00 0.00 0.00 20 918.1
20260502130113 46 309 6.1 7.0 0.00 0.00 0.00 20 918.1
20260502123108 46 215 2.6 5.2 0.00 0.00 0.00 20 918.1
20260502120114 46 326 3.5 5.2 0.00 0.00 0.00 20 918.1
20260502113111 45 294 10.4 15.6 0.00 0.00 0.00 20 917.9
20260502111614 45 294 9.6 13.0 0.00 0.00 0.00 20 918.1
20260502110108 45 304 8.7 13.0 0.00 0.00 0.00 20 917.9
20260502104609 48 299 7.8 13.0 0.00 0.00 0.00 20 918.1
20260502103109 47 318 6.1 7.0 0.00 0.00 0.00 20 918.2
20260502101608 47 310 3.5 6.1 0.00 0.00 0.00 20 918.2
20260502100109 47 312 4.3 6.1 0.00 0.00 0.00 20 918.2
20260502090111 48 302 1.7 2.6 0.00 0.00 0.00 20 918.3
20260502080110 50 165 3.5 3.5 0.00 0.00 0.00 20 918.4
20260502070120 51 225 3.5 5.2 0.00 0.00 0.00 20 918.5
20260502064615 51 310 2.6 3.5 0.00 0.00 0.00 20 918.4
20260502063114 51 10 1.7 2.6 0.00 0.00 0.00 20 918.5
20260502061608 52 353 3.5 3.5 0.00 0.00 0.00 20 918.5
20260502060123 52 297 2.6 4.3 0.00 0.00 0.00 20 918.5
20260502054608 52 336 1.7 2.6 0.00 0.00 0.00 20 918.5
20260502053114 53 337 1.7 2.6 0.00 0.00 0.00 20 918.5
20260502051623 54 8 4.3 5.2 0.00 0.00 0.00 20 918.6
20260502050111 54 323 3.5 4.3 0.00 0.00 0.00 20 918.6
20260502044615 54 10 2.6 2.6 0.00 0.00 0.00 20 918.6
20260502043109 55 234 1.7 1.7 0.00 0.00 0.00 20 918.7
20260502041617 55 340 1.7 2.6 0.00 0.00 0.00 20 918.7
20260502040118 56 351 1.7 2.6 0.00 0.00 0.00 20 918.8
20260502034608 57 356 1.7 1.7 0.00 0.00 0.00 20 918.8
20260502033114 58 358 1.7 2.6 0.00 0.00 0.00 20 918.9
20260502031622 58 347 2.6 3.5 0.00 0.00 0.00 20 918.9
20260502030115 59 268 0.0 0.9 0.00 0.00 0.00 20 919.0
20260502024611 61 200 0.9 1.7 0.00 0.00 0.00 20 919.2
20260502023110 62 324 0.9 1.7 0.00 0.00 0.00 20 919.3
20260502014616 67 326 1.7 1.7 0.00 0.00 0.00 20 919.7
20260502013109 70 289 1.7 2.6 0.00 0.00 0.00 21 919.9
20260502010110 71 226 7.0 7.8 0.00 0.00 0.00 21 920.0